Dewpoint
43 43 42 41 41 41 41 41 42 41 40 39 38 37 37 37 36 36 36 37 37 36 37 39 42 43 43 42 41 41 41 42 43 43 43 43 43 44 44 39 37 36 37 38 38 38 37 36 32 31 33 27
42 41 41 39 38 38 39 40 40 40 40 40 38 37 36 35 34 35 34 34 35 34 34 36 37 40 41 41 40 40 39 40 41 42 41 41 40 39 37 35 34 33 35 36 37 36 35 33 30 30 31 25
39 41 40 39 39 38 37 38 39 39 40 39 40 38 38 35 34 31 32 30 32 31 31 32 33 36 39 39 38 37 37 37 39 40 39 39 38 37 35 32 31 30 32 33 34 33 32 29 30 31 26 24
38 40 39 39 38 40 40 39 38 39 37 39 38 39 37 37 36 33 32 31 31 30 30 30 32 33 36 37 37 36 34 34 36 38 37 37 36 34 31 29 28 28 29 30 31 29 29 29 32 26 21 24
41 42 44 44 47 47 47 46 45 45 41 39 41 40 40 40 35 34 32 32 27 34 29 33 32 33 32 35 34 33 32 30 32 35 34 33 34 31 29 28 29 29 29 29 28 28 28 31 28 23 23 24
39 40 36 39 40 39 41 43 41 42 40 45 38 41 38 38 33 29 30 30 34 29 32 36 33 32 30 32 32 30 30 28 29 31 31 31 31 29 28 30 29 28 31 31 27 27 29 29 22 23 23 23
36 34 34 35 33 34 32 34 33 30 33 33 37 38 35 31 29 31 29 30 32 29 33 32 35 31 31 30 29 28 28 28 27 28 28 28 28 28 29 29 27 24 27 28 32 32 29 22 23 23 24 24
31 31 29 28 29 28 27 30 33 33 33 33 35 37 34 30 32 33 29 39 40 37 33 36 36 34 32 32 30 30 29 32 31 28 31 30 28 29 25 25 23 22 22 24 23 23 21 22 23 24 22 22
25 29 24 25 25 28 26 30 31 30 34 35 35 36 32 33 32 34 30 30 30 30 28 28 29 32 31 29 31 31 28 27 28 28 28 27 29 25 25 24 24 23 22 21 21 20 21 21 22 22 22 22
25 22 23 27 24 25 27 31 28 29 31 33 34 33 32 30 33 32 29 31 31 30 28 27 26 26 25 26 27 27 26 25 26 26 24 25 24 22 22 23 23 24 21 21 20 20 22 22 22 21 20 22
23 27 27 28 29 31 30 30 30 29 29 30 32 33 32 29 28 28 27 28 29 29 27 26 25 23 24 26 25 24 23 25 25 23 22 23 23 22 23 24 24 24 23 23 23 23 23 23 22 23 22 22
26 28 29 29 29 29 28 28 28 28 29 31 28 30 27 27 27 25 25 27 26 25 25 26 26 25 24 23 23 23 22 24 22 21 21 23 23 20 21 21 23 23 21 23 24 24 23 23 22 21 21 20
26 27 28 28 26 25 29 27 26 26 27 26 25 27 29 28 25 24 25 25 25 24 26 26 27 24 23 24 22 23 21 22 23 21 20 21 21 21 21 21 21 21 21 21 21 20 22 22 22 21 22 22
26 26 27 28 27 26 27 26 26 27 24 24 25 26 29 28 27 25 25 25 25 25 26 26 27 25 24 22 22 22 23 21 21 21 20 21 22 19 21 19 20 19 21 19 20 21 22 22 20 20 20 20
23 24 23 25 25 26 26 26 25 25 25 26 26 27 29 28 28 26 26 26 26 25 25 25 25 25 24 23 23 23 23 23 23 22 22 22 22 22 21 20 20 19 19 20 20 20 22 22 21 19 19 19
22 19 19 21 19 19 20 21 19 18 19 21 21 25 27 25 25 25 26 28 27 27 26 25 24 25 25 24 23 24 24 25 25 24 24 25 25 25 24 22 21 21 19 20 19 19 20 20 21 20 19 19
17 19 17 20 21 20 22 20 21 20 21 21 21 25 27 25 26 24 25 25 27 27 25 25 26 25 25 25 24 26 27 27 26 24 23 23 24 24 24 23 23 25 22 21 20 20 19 19 19 19 19 20
16 19 21 21 21 22 21 20 20 21 22 21 21 23 27 26 26 25 24 26 26 25 23 25 25 25 25 25 27 27 26 24 23 22 22 21 21 23 21 22 22 21 21 20 20 20 20 19 20 20 19 19
15 16 20 20 21 21 23 21 20 20 21 21 21 22 22 25 25 25 26 26 25 25 23 24 23 24 24 26 28 25 25 25 25 24 23 22 21 22 21 21 21 21 21 21 21 21 21 19 18 19 19 20
15 14 15 19 24 19 23 21 21 20 21 20 21 20 22 24 23 24 25 26 26 24 24 23 23 23 25 27 25 25 25 25 24 23 25 24 24 22 22 22 22 21 20 20 20 20 20 20 21 20 19 20
19 15 14 13 15 16 19 19 19 19 20 21 20 19 20 24 23 25 26 26 25 23 23 23 23 23 25 25 24 24 24 23 24 23 25 23 24 24 22 22 22 22 21 21 19 20 21 21 21 20 20 19
16 15 14 15 16 17 14 16 18 18 19 19 18 19 21 24 24 25 24 25 24 23 23 22 22 23 23 24 22 22 23 22 23 23 23 23 24 24 24 22 22 22 21 23 23 21 21 21 21 20 19 19
15 15 14 13 12 12 12 16 16 16 17 17 17 19 22 23 23 23 22 23 22 21 21 21 20 21 22 22 21 21 21 22 23 23 23 23 23 24 23 23 23 22 23 24 24 23 21 21 20 21 20 20
14 14 15 13 12 11 11 11 15 14 15 17 16 20 21 21 22 19 17 18 18 17 17 17 17 17 18 18 18 19 20 20 20 21 22 22 22 23 23 23 22 22 22 21 22 22 21 20 20 20 21 19
12 13 14 13 11 10 9 10 11 10 13 16 15 17 21 19 16 17 15 14 14 13 12 11 12 13 14 13 14 14 15 17 17 18 19 19 20 21 20 20 21 22 22 20 20 19 20 19 19 19 18 18
11 12 13 12 13 10 11 9 10 11 13 14 13 13 17 15 12 12 12 12 13 12 12 12 11 12 12 13 12 13 12 12 15 13 14 17 16 17 17 17 19 21 20 17 17 16 15 16 16 17 17 16
11 10 12 9 9 8 10 10 10 9 9 5 4 4 8 7 7 7 8 10 11 11 12 12 12 13 13 14 14 13 13 12 12 11 13 13 13 14 15 15 18 18 20 18 18 19 17 12 10 15 15 16
12 12 10 7 8 4 2 3 6 0 -4 -2 -1 1 0 1 4 6 7 8 10 10 11 12 13 12 10 8 9 9 8 8 8 10 12 13 14 15 13 13 13 16 18 17 16 15 12 12 11 9 7 10
11 10 7 2 3 1 0 -0 -1 -5 -4 -4 1 1 1 0 4 5 6 7 8 9 11 12 11 9 5 4 4 4 2 1 4 7 9 11 12 11 11 10 11 13 15 16 18 16 16 15 13 13 11 14
8 5 4 1 1 -2 -2 -1 -3 -5 -3 -1 -2 -2 -0 2 2 4 5 5 7 9 11 9 7 5 1 0 1 1 -0 -2 0 4 7 7 7 7 10 11 10 8 11 13 15 17 17 17 15 13 13 13
6 2 -0 -1 -3 -2 -3 -2 -1 -4 -2 -1 -3 1 -1 1 1 3 3 2 3 8 10 7 4 1 -0 -1 -2 -1 -2 -2 0 1 2 3 3 3 8 8 6 7 7 10 12 15 16 17 18 18 16 15